• Join FlightAware (Why Join?)
  • Login
  • US Flag GB Flag 
10:06 EDT


 

Airport Tracker/Info


-or-


 

Live Flight TrackerFlight Track Log ✈ EJA951 ✈ 24-Mar-2014 ✈ KSFO - KSMF

Flight Track Log - Related Links

Times and Time Zones

All times are in EDT time to prevent confusion due to time zone crossing. See the EJA951 flight status page for this flight to view local times or setup timezone preferences in your user account.

Time Position Orientation Groundspeed Altitude Reporting Facility
EDT Latitude Longitude Course Direction KTS MPH feet Rate Location/Type
16:56 37.6500 -122.3333 31° Northeast 214 246 3,400  Level Northern Cal TRACON
16:57 37.7000 -122.2833 38° Northeast 272 313 7,600 3,780 Climbing Northern Cal TRACON
16:58 37.7833 -122.2167 32° Northeast 317 365 11,000 1,560 Climbing Northern Cal TRACON
17:00 37.8833 -122.1500 28° Northeast 404 465 11,000  Level Northern Cal TRACON
17:00 37.9833 -122.0833 28° Northeast 424 488 11,000  Level Northern Cal TRACON
17:01 38.0833 -122.0000 33° Northeast 418 481 11,000  Level Northern Cal TRACON
17:02 37.9695 -122.0937 31° Northeast  Level FlightAware Approximate
17:02 38.1667 -121.9333 32° Northeast 403 464 11,000  Level Northern Cal TRACON
17:03 38.2500 -121.8500 38° Northeast 390 449 10,900  Descending Northern Cal TRACON
17:04 38.3500 -121.7667 33° Northeast 388 447 11,000  Climbing Northern Cal TRACON
17:05 38.4500 -121.7167 21° North 377 434 11,000 -600 Level Northern Cal TRACON
17:06 38.5333 -121.7000 North 307 353 9,800 -1,560 Descending Northern Cal TRACON
17:07 38.6167 -121.7000 360° North 294 338 7,900 -1,800 Descending Northern Cal TRACON
17:08 38.6500 -121.7011 359° North 289 333 7,100 -1,440 Descending Oakland Center
17:09 38.7275 -121.7094 355° North 281 323 5,800 -1,680 Descending Oakland Center
17:10 38.7917 -121.6867 15° North 269 310 3,800 -1,860 Descending Oakland Center
17:11 38.7964 -121.6136 85° East 226 260 2,000 -1,380 Descending Oakland Center
17:12 38.7603 -121.5994 163° South 168 193 1,000 -840 Descending Oakland Center
17:13 38.7211 -121.6000 181° South 150 173 300 -420 Descending Oakland Center
17:14 38.6833 -121.6006 181° South 148 170 200 -120 Descending Oakland Center